Weather History for PAMR - February, 2014

Change the Weather History Date:

Friday, February 28, 2014

  Actual Average Record
Temperature  
Mean Temperature 32 °F -  
Max Temperature 39 °F 30 °F 39 °F (2014)
Min Temperature 26 °F 15 °F 26 °F (2014)
Degree Days  
Heating Degree Days 32    
Moisture  
Dew Point 30 °F    
Average Humidity 85    
Maximum Humidity 93    
Minimum Humidity 70    
Precipitation  
Precipitation 0.00 in - - ()
Sea Level Pressure  
Sea Level Pressure 30.06 in    
Wind  
Wind Speed 0 mph (NE)    
Max Wind Speed 4 mph    
Max Gust Speed -    
Visibility 10 miles    
Events      
Averages and records for this station are not official NWS values.
T = Trace of Precipitation, MM = Missing Value Source: NWS Daily Summary

Daily Weather History Graph

Daily Weather History Graph

Search for Another Location

Airport or City:

Trip Planner

Search our weather history database for the weather conditions in past years. The results will help you decide how hot, cold, wet, or windy it might be!

Date:

Astronomy

Feb. 28, 2014 Rise Set
Actual Time 8:02 AM AKST 6:22 PM AKST
Civil Twilight 7:18 AM AKST 7:06 PM AKST
Nautical Twilight 6:29 AM AKST 7:56 PM AKST
Astronomical Twilight 5:38 AM AKST 8:47 PM AKST
Moon 7:24 AM AKST (2/28) 6:18 PM AKST (2/28)
Length of Visible Light 11h 47m
Length of Day
10h 19m
Waning Crescent, 0% of the Moon is Illuminated
Feb 28
Waning Crescent
Feb 28
New
Mar 8
First Quarter
Mar 16
Full
Mar 23
Last Quarter

Hourly Weather History & Observations

Time (AKST) Temp. Windchill Dew Point Humidity Pressure Visibility Wind Dir Wind Speed Gust Speed Precip Events Conditions
12:53 AM 39.9 °F - 33.1 °F 77% 29.99 in 10.0 mi Calm Calm - N/A   Overcast
1:53 AM 37.0 °F - 33.1 °F 86% 30.02 in 10.0 mi Calm Calm - N/A   Mostly Cloudy
3:53 AM 35.1 °F - 30.9 °F 85% 30.04 in 10.0 mi Calm Calm - N/A   Partly Cloudy
4:53 AM 30.0 °F - 28.0 °F 92% 30.05 in 10.0 mi Calm Calm - N/A   Partly Cloudy
5:13 AM 30.2 °F - 28.4 °F 93% 30.05 in 1.8 mi Calm Calm - N/A   Partly Cloudy
5:20 AM 30.2 °F - 26.6 °F 86% 30.05 in 10.0 mi Calm Calm - N/A   Partly Cloudy
5:53 AM 33.1 °F - 30.0 °F 89% 30.07 in 10.0 mi Calm Calm - N/A   Scattered Clouds
6:53 AM 32.0 °F 28.7 °F 28.9 °F 88% 30.08 in 10.0 mi East 3.5 mph - N/A   Scattered Clouds
7:53 AM 35.1 °F - 30.9 °F 85% 30.09 in 10.0 mi Calm Calm - N/A   Scattered Clouds
8:00 AM 33.8 °F - 30.2 °F 87% 30.09 in 10.0 mi Calm Calm - N/A   Overcast
8:53 AM 34.0 °F - 30.9 °F 89% 30.11 in 10.0 mi Calm Calm - N/A   Overcast
9:53 AM 36.0 °F - 32.0 °F 86% 30.11 in 10.0 mi Calm Calm - N/A   Overcast
10:53 AM 37.9 °F - 33.1 °F 83% 30.11 in 10.0 mi Calm Calm - N/A   Overcast
11:53 AM 39.0 °F - 33.1 °F 79% 30.11 in 10.0 mi Calm Calm - N/A   Overcast
12:53 PM 39.9 °F - 32.0 °F 73% 30.10 in 10.0 mi Calm Calm - N/A   Overcast
1:53 PM 39.9 °F - 30.9 °F 70% 30.10 in 10.0 mi Calm Calm - N/A   Overcast
2:53 PM 37.9 °F 35.5 °F 32.0 °F 79% 30.09 in 10.0 mi WNW 3.5 mph - N/A   Overcast
3:53 PM 37.9 °F - 32.0 °F 79% 30.08 in 10.0 mi Calm Calm - N/A   Overcast
4:53 PM 37.0 °F - 32.0 °F 82% 30.06 in 10.0 mi Calm Calm - N/A   Overcast
5:53 PM 36.0 °F - 32.0 °F 86% 30.05 in 10.0 mi Calm Calm - N/A   Partly Cloudy
6:53 PM 34.0 °F - 30.0 °F 85% 30.05 in 10.0 mi Calm Calm - N/A   Clear
7:53 PM 30.9 °F - 28.0 °F 89% 30.05 in 10.0 mi Calm Calm - N/A   Clear
8:53 PM 30.0 °F - 28.0 °F 92% 30.04 in 10.0 mi Calm Calm - N/A   Clear
9:53 PM 26.1 °F - 21.9 °F 84% 30.04 in 10.0 mi Calm Calm - N/A   Clear
10:53 PM 28.9 °F 25.2 °F 27.0 °F 92% 30.02 in 10.0 mi NE 3.5 mph - N/A   Clear
11:53 PM 27.0 °F - 24.1 °F 89% 30.01 in 10.0 mi Calm Calm - N/A   Clear